Year,Month,Day,Hour,Minute,Value (Times are PST for temperature in C)
2008,07,28,00,00,11.80
2008,07,28,00,01,11.80
2008,07,28,00,02,11.80
2008,07,28,00,03,11.80
2008,07,28,00,04,11.70
2008,07,28,00,05,11.70
2008,07,28,00,06,11.70
2008,07,28,00,07,11.70
2008,07,28,00,08,11.60
2008,07,28,00,09,11.60
2008,07,28,00,10,11.60
2008,07,28,00,11,11.60
2008,07,28,00,12,11.60
2008,07,28,00,13,11.60
2008,07,28,00,14,11.50
2008,07,28,00,15,11.50
2008,07,28,00,16,11.50
2008,07,28,00,17,11.50
2008,07,28,00,18,11.40
2008,07,28,00,19,11.40
2008,07,28,00,20,11.40
2008,07,28,00,21,11.40
2008,07,28,00,22,11.40
2008,07,28,00,23,11.30
2008,07,28,00,24,11.30
2008,07,28,00,25,11.30
2008,07,28,00,26,11.30
2008,07,28,00,27,11.30
2008,07,28,00,28,11.20
2008,07,28,00,29,11.20
2008,07,28,00,30,11.20
2008,07,28,00,31,11.20
2008,07,28,00,32,11.20
2008,07,28,00,33,11.10
2008,07,28,00,34,11.10
2008,07,28,00,35,11.10
2008,07,28,00,36,11.10
2008,07,28,00,37,11.10
2008,07,28,00,38,11.10
2008,07,28,00,39,11.00
2008,07,28,00,40,11.00
2008,07,28,00,41,11.00
2008,07,28,00,42,11.00
2008,07,28,00,43,11.00
2008,07,28,00,44,10.90
2008,07,28,00,45,10.90
2008,07,28,00,46,10.90
2008,07,28,00,47,10.90
2008,07,28,00,48,10.90
2008,07,28,00,49,10.90
2008,07,28,00,50,10.90
2008,07,28,00,51,10.90
2008,07,28,00,52,10.90
2008,07,28,00,53,10.90
2008,07,28,00,54,10.90
2008,07,28,00,55,10.90
2008,07,28,00,56,10.90
2008,07,28,00,57,10.90
2008,07,28,00,58,10.90
2008,07,28,00,59,10.90
2008,07,28,01,00,10.90
2008,07,28,01,01,10.90
2008,07,28,01,02,10.90
2008,07,28,01,03,10.90
2008,07,28,01,04,10.90
2008,07,28,01,05,10.90
2008,07,28,01,06,10.90
2008,07,28,01,07,10.90
2008,07,28,01,08,10.90
2008,07,28,01,09,10.90
2008,07,28,01,10,10.90
2008,07,28,01,11,10.90
2008,07,28,01,12,10.90
2008,07,28,01,13,10.90
2008,07,28,01,14,10.90
2008,07,28,01,15,10.90
2008,07,28,01,16,10.80
2008,07,28,01,17,10.80
2008,07,28,01,18,10.80
2008,07,28,01,19,10.80
2008,07,28,01,20,10.80
2008,07,28,01,21,10.80
2008,07,28,01,22,10.80
2008,07,28,01,23,10.80
2008,07,28,01,24,10.80
2008,07,28,01,25,10.80
2008,07,28,01,26,10.80
2008,07,28,01,27,10.80
2008,07,28,01,28,10.80
2008,07,28,01,29,10.80
2008,07,28,01,30,10.80
2008,07,28,01,31,10.80
2008,07,28,01,32,10.80
2008,07,28,01,33,10.80
2008,07,28,01,34,10.80
2008,07,28,01,35,10.80
2008,07,28,01,36,10.80
2008,07,28,01,37,10.80
2008,07,28,01,38,10.80
2008,07,28,01,39,10.80
2008,07,28,01,40,10.80
2008,07,28,01,41,10.80
2008,07,28,01,42,10.80
2008,07,28,01,43,10.80
2008,07,28,01,44,10.80
2008,07,28,01,45,10.80
2008,07,28,01,46,10.80
2008,07,28,01,47,10.80
2008,07,28,01,48,10.80
2008,07,28,01,49,10.80
2008,07,28,01,50,10.80
2008,07,28,01,51,10.80
2008,07,28,01,52,10.80
2008,07,28,01,53,10.80
2008,07,28,01,54,10.80
2008,07,28,01,55,10.80
2008,07,28,01,56,10.80
2008,07,28,01,57,10.70
2008,07,28,01,58,10.70
2008,07,28,01,59,10.80
2008,07,28,02,00,10.70
2008,07,28,02,01,10.70
2008,07,28,02,02,10.80
2008,07,28,02,03,10.80
2008,07,28,02,04,10.80
2008,07,28,02,05,10.70
2008,07,28,02,06,10.80
2008,07,28,02,07,10.70
2008,07,28,02,08,10.80
2008,07,28,02,09,10.80
2008,07,28,02,10,10.80
2008,07,28,02,11,10.80
2008,07,28,02,12,10.80
2008,07,28,02,13,10.80
2008,07,28,02,14,10.80
2008,07,28,02,15,10.80
2008,07,28,02,16,10.80
2008,07,28,02,17,10.80
2008,07,28,02,18,10.80
2008,07,28,02,19,10.80
2008,07,28,02,20,10.80
2008,07,28,02,21,10.80
2008,07,28,02,22,10.80
2008,07,28,02,23,10.80
2008,07,28,02,24,10.80
2008,07,28,02,25,10.80
2008,07,28,02,26,10.80
2008,07,28,02,27,10.80
2008,07,28,02,28,10.90
2008,07,28,02,29,10.90
2008,07,28,02,30,10.90
2008,07,28,02,31,10.90
2008,07,28,02,32,10.90
2008,07,28,02,33,10.90
2008,07,28,02,34,10.90
2008,07,28,02,35,10.90
2008,07,28,02,36,10.90
2008,07,28,02,37,10.90
2008,07,28,02,38,10.90
2008,07,28,02,39,10.90
2008,07,28,02,40,10.90
2008,07,28,02,41,10.90
2008,07,28,02,42,10.90
2008,07,28,02,43,10.90
2008,07,28,02,44,10.90
2008,07,28,02,45,10.90
2008,07,28,02,46,10.90
2008,07,28,02,47,10.90
2008,07,28,02,48,10.80
2008,07,28,02,49,10.80
2008,07,28,02,50,10.80
2008,07,28,02,51,10.80
2008,07,28,02,52,10.80
2008,07,28,02,53,10.70
2008,07,28,02,54,10.70
2008,07,28,02,55,10.70
2008,07,28,02,56,10.60
2008,07,28,02,57,10.60
2008,07,28,02,58,10.60
2008,07,28,02,59,10.50
2008,07,28,03,00,10.50
2008,07,28,03,01,10.50
2008,07,28,03,02,10.40
2008,07,28,03,03,10.40
2008,07,28,03,04,10.40
2008,07,28,03,05,10.30
2008,07,28,03,06,10.30
2008,07,28,03,07,10.30
2008,07,28,03,08,10.30
2008,07,28,03,09,10.30
2008,07,28,03,10,10.30
2008,07,28,03,11,10.20
2008,07,28,03,12,10.20
2008,07,28,03,13,10.20
2008,07,28,03,14,10.20
2008,07,28,03,15,10.20
2008,07,28,03,16,10.20
2008,07,28,03,17,10.20
2008,07,28,03,18,10.20
2008,07,28,03,19,10.20
2008,07,28,03,20,10.20
2008,07,28,03,21,10.20
2008,07,28,03,22,10.20
2008,07,28,03,23,10.20
2008,07,28,03,24,10.20
2008,07,28,03,25,10.20
2008,07,28,03,26,10.20
2008,07,28,03,27,10.20
2008,07,28,03,28,10.30
2008,07,28,03,29,10.30
2008,07,28,03,30,10.30
2008,07,28,03,31,10.30
2008,07,28,03,32,10.30
2008,07,28,03,33,10.30
2008,07,28,03,34,10.30
2008,07,28,03,35,10.30
2008,07,28,03,36,10.30
2008,07,28,03,37,10.30
2008,07,28,03,38,10.30
2008,07,28,03,39,10.30
2008,07,28,03,40,10.30
2008,07,28,03,41,10.30
2008,07,28,03,42,10.20
2008,07,28,03,43,10.20
2008,07,28,03,44,10.20
2008,07,28,03,45,10.20
2008,07,28,03,46,10.20
2008,07,28,03,47,10.10
2008,07,28,03,48,10.10
2008,07,28,03,49,10.10
2008,07,28,03,50,10.00
2008,07,28,03,51,10.00
2008,07,28,03,52,10.00
2008,07,28,03,53,9.90
2008,07,28,03,54,9.90
2008,07,28,03,55,9.90
2008,07,28,03,56,9.90
2008,07,28,03,57,9.80
2008,07,28,03,58,9.80
2008,07,28,03,59,9.80
2008,07,28,04,00,9.80
2008,07,28,04,01,9.80
2008,07,28,04,02,9.80
2008,07,28,04,03,9.70
2008,07,28,04,04,9.70
2008,07,28,04,05,9.70
2008,07,28,04,06,9.70
2008,07,28,04,07,9.70
2008,07,28,04,08,9.60
2008,07,28,04,09,9.60
2008,07,28,04,10,9.60
2008,07,28,04,11,9.60
2008,07,28,04,12,9.60
2008,07,28,04,13,9.60
2008,07,28,04,14,9.60
2008,07,28,04,15,9.60
2008,07,28,04,16,9.50
2008,07,28,04,17,9.50
2008,07,28,04,18,9.50
2008,07,28,04,19,9.40
2008,07,28,04,20,9.40
2008,07,28,04,21,9.40
2008,07,28,04,22,9.40
2008,07,28,04,23,9.40
2008,07,28,04,24,9.40
2008,07,28,04,25,9.40
2008,07,28,04,26,9.40
2008,07,28,04,27,9.40
2008,07,28,04,28,9.40
2008,07,28,04,29,9.30
2008,07,28,04,30,9.30
2008,07,28,04,31,9.30
2008,07,28,04,32,9.30
2008,07,28,04,33,9.30
2008,07,28,04,34,9.30
2008,07,28,04,35,9.30
2008,07,28,04,36,9.30
2008,07,28,04,37,9.30
2008,07,28,04,38,9.30
2008,07,28,04,39,9.30
2008,07,28,04,40,9.30
2008,07,28,04,41,9.20
2008,07,28,04,42,9.20
2008,07,28,04,43,9.20
2008,07,28,04,44,9.20
2008,07,28,04,45,9.20
2008,07,28,04,46,9.20
2008,07,28,04,47,9.20
2008,07,28,04,48,9.20
2008,07,28,04,49,9.20
2008,07,28,04,50,9.20
2008,07,28,04,51,9.20
2008,07,28,04,52,9.30
2008,07,28,04,53,9.30
2008,07,28,04,54,9.30
2008,07,28,04,55,9.30
2008,07,28,04,56,9.30
2008,07,28,04,57,9.30
2008,07,28,04,58,9.40
2008,07,28,04,59,9.40
2008,07,28,05,00,9.50
2008,07,28,05,01,9.50
2008,07,28,05,02,9.60
2008,07,28,05,03,9.60
2008,07,28,05,04,9.60
2008,07,28,05,05,9.70
2008,07,28,05,06,9.70
2008,07,28,05,07,9.80
2008,07,28,05,08,9.80
2008,07,28,05,09,9.90
2008,07,28,05,10,9.90
2008,07,28,05,11,9.90
2008,07,28,05,12,10.00
2008,07,28,05,13,10.00
2008,07,28,05,14,10.00
2008,07,28,05,15,10.10
2008,07,28,05,16,10.10
2008,07,28,05,17,10.10
2008,07,28,05,18,10.10
2008,07,28,05,19,10.10
2008,07,28,05,20,10.10
2008,07,28,05,21,10.20
2008,07,28,05,22,10.20
2008,07,28,05,23,10.20
2008,07,28,05,24,10.20
2008,07,28,05,25,10.20
2008,07,28,05,26,10.10
2008,07,28,05,27,10.10
2008,07,28,05,28,10.10
2008,07,28,05,29,10.10
2008,07,28,05,30,10.10
2008,07,28,05,31,10.10
2008,07,28,05,32,10.10
2008,07,28,05,33,10.00
2008,07,28,05,34,10.00
2008,07,28,05,35,10.00
2008,07,28,05,36,9.90
2008,07,28,05,37,9.90
2008,07,28,05,38,9.90
2008,07,28,05,39,9.80
2008,07,28,05,40,9.80
2008,07,28,05,41,9.80
2008,07,28,05,42,9.80
2008,07,28,05,43,9.70
2008,07,28,05,44,9.70
2008,07,28,05,45,9.70
2008,07,28,05,46,9.70
2008,07,28,05,47,9.70
2008,07,28,05,48,9.70
2008,07,28,05,49,9.70
2008,07,28,05,50,9.70
2008,07,28,05,51,9.70
2008,07,28,05,52,9.70
2008,07,28,05,53,9.70
2008,07,28,05,54,9.70
2008,07,28,05,55,9.70
2008,07,28,05,56,9.70
2008,07,28,05,57,9.70
2008,07,28,05,58,9.70
2008,07,28,05,59,9.70
2008,07,28,06,00,9.70
2008,07,28,06,01,9.70
2008,07,28,06,02,9.70
2008,07,28,06,03,9.70
2008,07,28,06,04,9.70
2008,07,28,06,05,9.70
2008,07,28,06,06,9.70
2008,07,28,06,07,9.70
2008,07,28,06,08,9.70
2008,07,28,06,09,9.70
2008,07,28,06,10,9.70
2008,07,28,06,11,9.70
2008,07,28,06,12,9.70
2008,07,28,06,13,9.70
2008,07,28,06,14,9.70
2008,07,28,06,15,9.70
2008,07,28,06,16,9.70
2008,07,28,06,17,9.70
2008,07,28,06,18,9.80
2008,07,28,06,19,9.80
2008,07,28,06,20,9.80
2008,07,28,06,21,9.80
2008,07,28,06,22,9.80
2008,07,28,06,23,9.80
2008,07,28,06,24,9.80
2008,07,28,06,25,9.80
2008,07,28,06,26,9.90
2008,07,28,06,27,9.90
2008,07,28,06,28,9.90
2008,07,28,06,29,9.90
2008,07,28,06,30,9.90
2008,07,28,06,31,10.00
2008,07,28,06,32,10.00
2008,07,28,06,33,10.00
2008,07,28,06,34,10.10
2008,07,28,06,35,10.10
2008,07,28,06,36,10.10
2008,07,28,06,37,10.10
2008,07,28,06,38,10.10
2008,07,28,06,39,10.20
2008,07,28,06,40,10.20
2008,07,28,06,41,10.20
2008,07,28,06,42,10.20
2008,07,28,06,43,10.30
2008,07,28,06,44,10.30
2008,07,28,06,45,10.30
2008,07,28,06,46,10.30
2008,07,28,06,47,10.30
2008,07,28,06,48,10.40
2008,07,28,06,49,10.40
2008,07,28,06,50,10.40
2008,07,28,06,51,10.50
2008,07,28,06,52,10.50
2008,07,28,06,53,10.60
2008,07,28,06,54,10.60
2008,07,28,06,55,10.60
2008,07,28,06,56,10.60
2008,07,28,06,57,10.60
2008,07,28,06,58,10.70
2008,07,28,06,59,10.70
2008,07,28,07,00,10.70
2008,07,28,07,01,10.70
2008,07,28,07,02,10.80
2008,07,28,07,03,10.80
2008,07,28,07,04,10.80
2008,07,28,07,05,10.80
2008,07,28,07,06,10.80
2008,07,28,07,07,10.80
2008,07,28,07,08,10.90
2008,07,28,07,09,10.90
2008,07,28,07,10,10.90
2008,07,28,07,11,10.90
2008,07,28,07,12,11.00
2008,07,28,07,13,11.00
2008,07,28,07,14,11.00
2008,07,28,07,15,11.00
2008,07,28,07,16,11.10
2008,07,28,07,17,11.10
2008,07,28,07,18,11.10
2008,07,28,07,19,11.20
2008,07,28,07,20,11.20
2008,07,28,07,21,11.20
2008,07,28,07,22,11.20
2008,07,28,07,23,11.20
2008,07,28,07,24,11.30
2008,07,28,07,25,11.30
2008,07,28,07,26,11.30
2008,07,28,07,27,11.30
2008,07,28,07,28,11.40
2008,07,28,07,29,11.40
2008,07,28,07,30,11.40
2008,07,28,07,31,11.50
2008,07,28,07,32,11.50
2008,07,28,07,33,11.50
2008,07,28,07,34,11.60
2008,07,28,07,35,11.60
2008,07,28,07,36,11.60
2008,07,28,07,37,11.60
2008,07,28,07,38,11.60
2008,07,28,07,39,11.60
2008,07,28,07,40,11.60
2008,07,28,07,41,11.70
2008,07,28,07,42,11.70
2008,07,28,07,43,11.70
2008,07,28,07,44,11.70
2008,07,28,07,45,11.70
2008,07,28,07,46,11.70
2008,07,28,07,47,11.70
2008,07,28,07,48,11.70
2008,07,28,07,49,11.70
2008,07,28,07,50,11.80
2008,07,28,07,51,11.80
2008,07,28,07,52,11.80
2008,07,28,07,53,11.80
2008,07,28,07,54,11.80
2008,07,28,07,55,11.80
2008,07,28,07,56,11.80
2008,07,28,07,57,11.80
2008,07,28,07,58,11.90
2008,07,28,07,59,11.90
2008,07,28,08,00,11.90
2008,07,28,08,01,11.90
2008,07,28,08,02,11.90
2008,07,28,08,03,11.90
2008,07,28,08,04,12.00
2008,07,28,08,05,12.00
2008,07,28,08,06,12.00
2008,07,28,08,07,12.00
2008,07,28,08,08,12.10
2008,07,28,08,09,12.10
2008,07,28,08,10,12.10
2008,07,28,08,11,12.20
2008,07,28,08,12,12.20
2008,07,28,08,13,12.20
2008,07,28,08,14,12.30
2008,07,28,08,15,12.30
2008,07,28,08,16,12.40
2008,07,28,08,17,12.40
2008,07,28,08,18,12.40
2008,07,28,08,19,12.50
2008,07,28,08,20,12.50
2008,07,28,08,21,12.60
2008,07,28,08,22,12.60
2008,07,28,08,23,12.70
2008,07,28,08,24,12.70
2008,07,28,08,25,12.70
2008,07,28,08,26,12.70
2008,07,28,08,27,12.80
2008,07,28,08,28,12.80
2008,07,28,08,29,12.80
2008,07,28,08,30,12.80
2008,07,28,08,31,12.80
2008,07,28,08,32,12.90
2008,07,28,08,33,12.90
2008,07,28,08,34,12.90
2008,07,28,08,35,12.90
2008,07,28,08,36,12.90
2008,07,28,08,37,12.90
2008,07,28,08,38,12.90
2008,07,28,08,39,12.90
2008,07,28,08,40,12.90
2008,07,28,08,41,12.90
2008,07,28,08,42,12.90
2008,07,28,08,43,12.90
2008,07,28,08,44,12.90
2008,07,28,08,45,12.90
2008,07,28,08,46,12.90
2008,07,28,08,47,12.90
2008,07,28,08,48,12.90
2008,07,28,08,49,12.90
2008,07,28,08,50,12.90
2008,07,28,08,51,12.90
2008,07,28,08,52,12.90
2008,07,28,08,53,12.90
2008,07,28,08,54,12.90
2008,07,28,08,55,13.00
2008,07,28,08,56,13.00
2008,07,28,08,57,13.00
2008,07,28,08,58,13.10
2008,07,28,08,59,13.10
2008,07,28,09,00,13.10
2008,07,28,09,01,13.10
2008,07,28,09,02,13.20
2008,07,28,09,03,13.20
2008,07,28,09,04,13.20
2008,07,28,09,05,13.20
2008,07,28,09,06,13.20
2008,07,28,09,07,13.30
2008,07,28,09,08,13.30
2008,07,28,09,09,13.30
2008,07,28,09,10,13.30
2008,07,28,09,11,13.30
2008,07,28,09,12,13.30
2008,07,28,09,13,13.40
2008,07,28,09,14,13.40
2008,07,28,09,15,13.40
2008,07,28,09,16,13.50
2008,07,28,09,17,13.50
2008,07,28,09,18,13.60
2008,07,28,09,19,13.60
2008,07,28,09,20,13.60
2008,07,28,09,21,13.70
2008,07,28,09,22,13.70
2008,07,28,09,23,13.70
2008,07,28,09,24,13.80
2008,07,28,09,25,13.80
2008,07,28,09,26,13.80
2008,07,28,09,27,13.80
2008,07,28,09,28,13.90
2008,07,28,09,29,13.90
2008,07,28,09,30,13.90
2008,07,28,09,31,13.90
2008,07,28,09,32,14.00
2008,07,28,09,33,14.00
2008,07,28,09,34,14.10
2008,07,28,09,35,14.10
2008,07,28,09,36,14.10
2008,07,28,09,37,14.10
2008,07,28,09,38,14.10
2008,07,28,09,39,14.10
2008,07,28,09,40,14.20
2008,07,28,09,41,14.20
2008,07,28,09,42,14.20
2008,07,28,09,43,14.20
2008,07,28,09,44,14.20
2008,07,28,09,45,14.20
2008,07,28,09,46,14.20
2008,07,28,09,47,14.20
2008,07,28,09,48,14.20
2008,07,28,09,49,14.30
2008,07,28,09,50,14.30
2008,07,28,09,51,14.30
2008,07,28,09,52,14.30
2008,07,28,09,53,14.30
2008,07,28,09,54,14.40
2008,07,28,09,55,14.40
2008,07,28,09,56,14.40
2008,07,28,09,57,14.40
2008,07,28,09,58,14.40
2008,07,28,09,59,14.50
2008,07,28,10,00,14.50
2008,07,28,10,01,14.50
2008,07,28,10,02,14.60
2008,07,28,10,03,14.60
2008,07,28,10,04,14.70
2008,07,28,10,05,14.70
2008,07,28,10,06,14.80
2008,07,28,10,07,14.90
2008,07,28,10,08,15.00
2008,07,28,10,09,15.00
2008,07,28,10,10,15.00
2008,07,28,10,11,15.00
2008,07,28,10,12,15.10
2008,07,28,10,13,15.20
2008,07,28,10,14,15.20
2008,07,28,10,15,15.30
2008,07,28,10,16,15.30
2008,07,28,10,17,15.40
2008,07,28,10,18,15.40
2008,07,28,10,19,15.40
2008,07,28,10,20,15.40
2008,07,28,10,21,15.50
2008,07,28,10,22,15.50
2008,07,28,10,23,15.50
2008,07,28,10,24,15.60
2008,07,28,10,25,15.60
2008,07,28,10,26,15.70
2008,07,28,10,27,15.70
2008,07,28,10,28,15.70
2008,07,28,10,29,15.80
2008,07,28,10,30,15.80
2008,07,28,10,31,15.90
2008,07,28,10,32,16.00
2008,07,28,10,33,16.10
2008,07,28,10,34,16.10
2008,07,28,10,35,16.20
2008,07,28,10,36,16.30
2008,07,28,10,37,16.40
2008,07,28,10,38,16.50
2008,07,28,10,39,16.60
2008,07,28,10,40,16.60
2008,07,28,10,41,16.70
2008,07,28,10,42,16.80
2008,07,28,10,43,16.80
2008,07,28,10,44,16.90
2008,07,28,10,45,17.00
2008,07,28,10,46,17.00
2008,07,28,10,47,17.10
2008,07,28,10,48,17.10
2008,07,28,10,49,17.20
2008,07,28,10,50,17.30
2008,07,28,10,51,17.40
2008,07,28,10,52,17.50
2008,07,28,10,53,17.50
2008,07,28,10,54,17.60
2008,07,28,10,55,17.60
2008,07,28,10,56,17.70
2008,07,28,10,57,17.70
2008,07,28,10,58,17.80
2008,07,28,10,59,17.90
2008,07,28,11,00,17.90
2008,07,28,11,01,18.00
2008,07,28,11,02,18.10
2008,07,28,11,03,18.10
2008,07,28,11,04,18.20
2008,07,28,11,05,18.20
2008,07,28,11,06,18.30
2008,07,28,11,07,18.30
2008,07,28,11,08,18.40
2008,07,28,11,09,18.50
2008,07,28,11,10,18.60
2008,07,28,11,11,18.60
2008,07,28,11,12,18.70
2008,07,28,11,13,18.80
2008,07,28,11,14,18.90
2008,07,28,11,15,18.90
2008,07,28,11,16,19.00
2008,07,28,11,17,19.10
2008,07,28,11,18,19.20
2008,07,28,11,19,19.30
2008,07,28,11,20,19.40
2008,07,28,11,21,19.40
2008,07,28,11,22,19.50
2008,07,28,11,23,19.60
2008,07,28,11,24,19.70
2008,07,28,11,25,19.70
2008,07,28,11,26,19.80
2008,07,28,11,27,19.80
2008,07,28,11,28,19.70
2008,07,28,11,29,19.70
2008,07,28,11,30,19.80
2008,07,28,11,31,19.80
2008,07,28,11,32,19.80
2008,07,28,11,33,19.80
2008,07,28,11,34,19.90
2008,07,28,11,35,19.90
2008,07,28,11,36,19.90
2008,07,28,11,37,19.90
2008,07,28,11,38,20.00
2008,07,28,11,39,20.10
2008,07,28,11,40,20.20
2008,07,28,11,41,20.20
2008,07,28,11,42,20.10
2008,07,28,11,43,20.10
2008,07,28,11,44,20.10
2008,07,28,11,45,20.20
2008,07,28,11,46,20.20
2008,07,28,11,47,20.30
2008,07,28,11,48,20.40
2008,07,28,11,49,20.40
2008,07,28,11,50,20.50
2008,07,28,11,51,20.60
2008,07,28,11,52,20.60
2008,07,28,11,53,20.70
2008,07,28,11,54,20.70
2008,07,28,11,55,20.80
2008,07,28,11,56,20.80
2008,07,28,11,57,20.80
2008,07,28,11,58,20.80
2008,07,28,11,59,20.90
2008,07,28,12,00,20.90
2008,07,28,12,01,20.90
2008,07,28,12,02,20.90
2008,07,28,12,03,20.90
2008,07,28,12,04,20.90
2008,07,28,12,05,20.90
2008,07,28,12,06,20.90
2008,07,28,12,07,21.00
2008,07,28,12,08,21.00
2008,07,28,12,09,21.00
2008,07,28,12,10,21.10
2008,07,28,12,11,21.10
2008,07,28,12,12,21.10
2008,07,28,12,13,21.20
2008,07,28,12,14,21.20
2008,07,28,12,15,21.20
2008,07,28,12,16,21.20
2008,07,28,12,17,21.20
2008,07,28,12,18,21.20
2008,07,28,12,19,21.30
2008,07,28,12,20,21.30
2008,07,28,12,21,21.40
2008,07,28,12,22,21.50
2008,07,28,12,23,21.50
2008,07,28,12,24,21.60
2008,07,28,12,25,21.60
2008,07,28,12,26,21.60
2008,07,28,12,27,21.60
2008,07,28,12,28,21.70
2008,07,28,12,29,21.70
2008,07,28,12,30,21.80
2008,07,28,12,31,21.80
2008,07,28,12,32,21.80
2008,07,28,12,33,21.80
2008,07,28,12,34,21.80
2008,07,28,12,35,21.80
2008,07,28,12,36,21.70
2008,07,28,12,37,21.70
2008,07,28,12,38,21.60
2008,07,28,12,39,21.60
2008,07,28,12,40,21.60
2008,07,28,12,41,21.60
2008,07,28,12,42,21.60
2008,07,28,12,43,21.60
2008,07,28,12,44,21.60
2008,07,28,12,45,21.60
2008,07,28,12,46,21.60
2008,07,28,12,47,21.50
2008,07,28,12,48,21.50
2008,07,28,12,49,21.50
2008,07,28,12,50,21.40
2008,07,28,12,51,21.40
2008,07,28,12,52,21.40
2008,07,28,12,53,21.40
2008,07,28,12,54,21.50
2008,07,28,12,55,21.40
2008,07,28,12,56,21.40
2008,07,28,12,57,21.40
2008,07,28,12,58,21.40
2008,07,28,12,59,21.40
2008,07,28,13,00,21.40
2008,07,28,13,01,21.40
2008,07,28,13,02,21.30
2008,07,28,13,03,21.20
2008,07,28,13,04,21.20
2008,07,28,13,05,21.20
2008,07,28,13,06,21.20
2008,07,28,13,07,21.30
2008,07,28,13,08,21.30
2008,07,28,13,09,21.30
2008,07,28,13,10,21.40
2008,07,28,13,11,21.40
2008,07,28,13,12,21.40
2008,07,28,13,13,21.40
2008,07,28,13,14,21.30
2008,07,28,13,15,21.40
2008,07,28,13,16,21.30
2008,07,28,13,17,21.40
2008,07,28,13,18,21.40
2008,07,28,13,19,21.40
2008,07,28,13,20,21.40
2008,07,28,13,21,21.50
2008,07,28,13,22,21.60
2008,07,28,13,23,21.70
2008,07,28,13,24,21.80
2008,07,28,13,25,21.90
2008,07,28,13,26,22.00
2008,07,28,13,27,22.10
2008,07,28,13,28,22.20
2008,07,28,13,29,22.30
2008,07,28,13,30,22.40
2008,07,28,13,31,22.40
2008,07,28,13,32,22.50
2008,07,28,13,33,22.60
2008,07,28,13,34,22.60
2008,07,28,13,35,22.60
2008,07,28,13,36,22.60
2008,07,28,13,37,22.60
2008,07,28,13,38,22.60
2008,07,28,13,39,22.60
2008,07,28,13,40,22.70
2008,07,28,13,41,22.70
2008,07,28,13,42,22.70
2008,07,28,13,43,22.70
2008,07,28,13,44,22.80
2008,07,28,13,45,22.80
2008,07,28,13,46,22.80
2008,07,28,13,47,22.80
2008,07,28,13,48,22.90
2008,07,28,13,49,22.90
2008,07,28,13,50,22.90
2008,07,28,13,51,22.90
2008,07,28,13,52,22.90
2008,07,28,13,53,22.90
2008,07,28,13,54,22.90
2008,07,28,13,55,22.90
2008,07,28,13,56,23.00
2008,07,28,13,57,23.10
2008,07,28,13,58,23.20
2008,07,28,13,59,23.20
2008,07,28,14,00,23.20
2008,07,28,14,01,23.30
2008,07,28,14,02,23.30
2008,07,28,14,03,23.30
2008,07,28,14,04,23.30
2008,07,28,14,05,23.40
2008,07,28,14,06,23.40
2008,07,28,14,07,23.40
2008,07,28,14,08,23.50
2008,07,28,14,09,23.60
2008,07,28,14,10,23.70
2008,07,28,14,11,23.70
2008,07,28,14,12,23.80
2008,07,28,14,13,23.80
2008,07,28,14,14,23.90
2008,07,28,14,15,23.90
2008,07,28,14,16,23.90
2008,07,28,14,17,24.00
2008,07,28,14,18,24.00
2008,07,28,14,19,24.10
2008,07,28,14,20,24.20
2008,07,28,14,21,24.30
2008,07,28,14,22,24.30
2008,07,28,14,23,24.30
2008,07,28,14,24,24.30
2008,07,28,14,25,24.30
2008,07,28,14,26,24.30
2008,07,28,14,27,24.30
2008,07,28,14,28,24.30
2008,07,28,14,29,24.20
2008,07,28,14,30,24.20
2008,07,28,14,31,24.20
2008,07,28,14,32,24.20
2008,07,28,14,33,24.20
2008,07,28,14,34,24.20
2008,07,28,14,35,24.20
2008,07,28,14,36,24.20
2008,07,28,14,37,24.20
2008,07,28,14,38,24.20
2008,07,28,14,39,24.20
2008,07,28,14,40,24.10
2008,07,28,14,41,24.10
2008,07,28,14,42,24.20
2008,07,28,14,43,24.20
2008,07,28,14,44,24.20
2008,07,28,14,45,24.30
2008,07,28,14,46,24.30
2008,07,28,14,47,24.40
2008,07,28,14,48,24.40
2008,07,28,14,49,24.50
2008,07,28,14,50,24.50
2008,07,28,14,51,24.50
2008,07,28,14,52,24.40
2008,07,28,14,53,24.40
2008,07,28,14,54,24.30
2008,07,28,14,55,24.20
2008,07,28,14,56,24.10
2008,07,28,14,57,24.00
2008,07,28,14,58,23.90
2008,07,28,14,59,23.70
2008,07,28,15,00,23.60
2008,07,28,15,01,23.40
2008,07,28,15,02,23.40
2008,07,28,15,03,23.30
2008,07,28,15,04,23.30
2008,07,28,15,05,23.30
2008,07,28,15,06,23.30
2008,07,28,15,07,23.30
2008,07,28,15,08,23.40
2008,07,28,15,09,23.40
2008,07,28,15,10,23.30
2008,07,28,15,11,23.30
2008,07,28,15,12,23.30
2008,07,28,15,13,23.30
2008,07,28,15,14,23.20
2008,07,28,15,15,23.20
2008,07,28,15,16,23.20
2008,07,28,15,17,23.10
2008,07,28,15,18,23.10
2008,07,28,15,19,23.00
2008,07,28,15,20,22.90
2008,07,28,15,21,22.80
2008,07,28,15,22,22.80
2008,07,28,15,23,22.70
2008,07,28,15,24,22.70
2008,07,28,15,25,22.70
2008,07,28,15,26,22.60
2008,07,28,15,27,22.60
2008,07,28,15,28,22.60
2008,07,28,15,29,22.60
2008,07,28,15,30,22.50
2008,07,28,15,31,22.50
2008,07,28,15,32,22.50
2008,07,28,15,33,22.40
2008,07,28,15,34,22.40
2008,07,28,15,35,22.40
2008,07,28,15,36,22.40
2008,07,28,15,37,22.30
2008,07,28,15,38,22.30
2008,07,28,15,39,22.30
2008,07,28,15,40,22.20
2008,07,28,15,41,22.20
2008,07,28,15,42,22.10
2008,07,28,15,43,22.10
2008,07,28,15,44,22.00
2008,07,28,15,45,21.90
2008,07,28,15,46,21.80
2008,07,28,15,47,21.80
2008,07,28,15,48,21.80
2008,07,28,15,49,21.80
2008,07,28,15,50,21.70
2008,07,28,15,51,21.70
2008,07,28,15,52,21.70
2008,07,28,15,53,21.60
2008,07,28,15,54,21.60
2008,07,28,15,55,21.60
2008,07,28,15,56,21.60
2008,07,28,15,57,21.60
2008,07,28,15,58,21.60
2008,07,28,15,59,21.70
2008,07,28,16,00,21.70
2008,07,28,16,01,21.70
2008,07,28,16,02,21.70
2008,07,28,16,03,21.70
2008,07,28,16,04,21.80
2008,07,28,16,05,21.80
2008,07,28,16,06,21.80
2008,07,28,16,07,21.80
2008,07,28,16,08,21.80
2008,07,28,16,09,21.80
2008,07,28,16,10,21.80
2008,07,28,16,11,21.80
2008,07,28,16,12,21.70
2008,07,28,16,13,21.70
2008,07,28,16,14,21.70
2008,07,28,16,15,21.70
2008,07,28,16,16,21.70
2008,07,28,16,17,21.60
2008,07,28,16,18,21.60
2008,07,28,16,19,21.60
2008,07,28,16,20,21.60
2008,07,28,16,21,21.60
2008,07,28,16,22,21.60
2008,07,28,16,23,21.60
2008,07,28,16,24,21.50
2008,07,28,16,25,21.50
2008,07,28,16,26,21.50
2008,07,28,16,27,21.50
2008,07,28,16,28,21.50
2008,07,28,16,29,21.50
2008,07,28,16,30,21.50
2008,07,28,16,31,21.50
2008,07,28,16,32,21.50
2008,07,28,16,33,21.40
2008,07,28,16,34,21.40
2008,07,28,16,35,21.40
2008,07,28,16,36,21.40
2008,07,28,16,37,21.40
2008,07,28,16,38,21.40
2008,07,28,16,39,21.40
2008,07,28,16,40,21.40
2008,07,28,16,41,21.40
2008,07,28,16,42,21.40
2008,07,28,16,43,21.40
2008,07,28,16,44,21.40
2008,07,28,16,45,21.40
2008,07,28,16,46,21.40
2008,07,28,16,47,21.40
2008,07,28,16,48,21.40
2008,07,28,16,49,21.40
2008,07,28,16,50,21.50
2008,07,28,16,51,21.50
2008,07,28,16,52,21.50
2008,07,28,16,53,21.50
2008,07,28,16,54,21.50
2008,07,28,16,55,21.50
2008,07,28,16,56,21.50
2008,07,28,16,57,21.50
2008,07,28,16,58,21.40
2008,07,28,16,59,21.40
2008,07,28,17,00,21.30
2008,07,28,17,01,21.30
2008,07,28,17,02,21.30
2008,07,28,17,03,21.30
2008,07,28,17,04,21.20
2008,07,28,17,05,21.20
2008,07,28,17,06,21.20
2008,07,28,17,07,21.30
2008,07,28,17,08,21.30
2008,07,28,17,09,21.30
2008,07,28,17,10,21.30
2008,07,28,17,11,21.30
2008,07,28,17,12,21.30
2008,07,28,17,13,21.30
2008,07,28,17,14,21.30
2008,07,28,17,15,21.30
2008,07,28,17,16,21.30
2008,07,28,17,17,21.30
2008,07,28,17,18,21.30
2008,07,28,17,19,21.40
2008,07,28,17,20,21.40
2008,07,28,17,21,21.40
2008,07,28,17,22,21.40
2008,07,28,17,23,21.40
2008,07,28,17,24,21.40
2008,07,28,17,25,21.40